Regional Weather Roundup
Issued by NWS

Home | Current Version | Previous Version | Graphics & Text | Print | Product List | Glossary On
Versions: 1 2 3 4 5 6 7 8 9 10 11 12 13 14 15 16 17 18 19 20 21 22 23 24 25 26 27 28 29 30 31 32 33 34 35 36 37 38 39 40 41 42 43 44 45 46 47 48 49 50
000
ASUS43 KBIS 160010
RWRND

NORTH DAKOTA REGIONAL WEATHER ROUNDUP
NATIONAL WEATHER SERVICE BISMARCK ND
600 PM CST MON JAN 15 2018

NOTE: "FAIR" INDICATES FEW OR NO CLOUDS BELOW 12,000 FEET WITH NO
SIGNIFICANT WEATHER AND/OR OBSTRUCTIONS TO VISIBILITY.


NDZ001>003-009>011-017-160100-
NORTHWEST NORTH DAKOTA

CITY           SKY/WX    TMP DP  RH WIND       PRES   REMARKS
WILLISTON      CLEAR     -9 -17  68 W3        30.84F
6HR MIN TEMP: -10; 6HR MAX TEMP:  -4;

MINOT          CLOUDY    -7 -15  68 W6        30.84S WCI -20
MINOT AFB      CLOUDY   -15 -21  73 W8        30.84R WCI -32
$$

NDZ018>021-031>035-040>046-160100-
SOUTHWEST NORTH DAKOTA

CITY           SKY/WX    TMP DP  RH WIND       PRES   REMARKS
BISMARCK       CLEAR     -7 -16  65 NW6       30.85R WCI -20
6HR MIN TEMP:  -7; 6HR MAX TEMP:  -3;

DICKINSON      CLEAR    -11 -18  71 W10       30.73S WCI -30
GARRISON         N/A    -12 -19  71 NW6       30.82S WCI -26
6HR MIN TEMP: -12; 6HR MAX TEMP:  -5;

HETTINGER ARPT CLEAR    -11 -18  71 NW9       30.74S WCI -29
$$

NDZ004>008-012>016-024-026-027-054-160100-
NORTHEAST NORTH DAKOTA

CITY           SKY/WX    TMP DP  RH WIND       PRES   REMARKS
GRAND FORKS    CLOUDY    -8 -13  78 N24       30.82R BLWGSNOWWCI -34
DEVILS LAKE    FAIR     -12 -18  74 NW14      30.81S WCI -34
$$

NDZ022-023-025-028>030-036>039-047>053-160100-
SOUTHEAST NORTH DAKOTA

CITY           SKY/WX    TMP DP  RH WIND       PRES   REMARKS
FARGO          CLOUDY    -9 -14  78 N15       30.79R HAZE    WCI -31
6HR MIN TEMP: -11; 6HR MAX TEMP:  -9; 6HR PCP:  0.02;

JAMESTOWN      CLOUDY    -8 -14  74 N24       30.75R HAZE    WCI -34
$$





USA.gov is the U.S. government's official web portal to all federal, state and local government web resources and services.